Location: Newark
(34.9500°N, 139.9667°E)
Time: 05:02:26
(UTC+00:00)

deb Explorer IX - Pass Details

Date: 12 December 2019
Orbit: 548 x 1101 km, 38.8° (Epoch: 20 January)

Event Time Altitude Azimuth Distance (km) Brightness Sun altitude
Rises 10:41:22 0° 288° (WNW) 3,615 ? -38.5°
Reaches altitude 10° 10:43:52 10° 288° (WNW) 2,738 ? -39.1°
Enters shadow 10:47:35 37° 285° (WNW) 1,554 ? -39.8°
